Zurück zum Katalog

SL-12 R/B(2)

AktivGEO
NORAD 23013·ROCKET BODY·🇷🇺 Russia

Gestartet Feb 18, 1994 von Baikonur Cosmodrome

Loading…

TLE

AktuellSource: Space-Track

Epoche: Aug 30, 2026, 22:28 UTC

1 23013U 94012D   26242.93655639 -.00000015  00000-0  00000+0 0  9993
2 23013  14.9919 350.5035 0032416 126.9867 268.6489  0.98106268116472

Verfolge SL-12 R/B(2) in Echtzeit mit AllMySat

Download on the App Store